Location: Mont Hereford
(45.0826°N, 71.6017°W)
Time: 15:39:30
(UTC-05:00)

Envisat - Visible Passes

Search period start: 20 January 2018 00:00
Search period end: 30 January 2018 00:00
Orbit: 764 x 766 km, 98.2° (Epoch: 20 January)

Date Brightness Start Highest point End Pass type
(mag) Time Alt. Az. Time Alt. Az. Time Alt. Az.
20 Jan 3.7 18:48:34 36° NNE 18:48:34 36° NNE 18:51:54 10° N visible
20 Jan 5.5 20:28:46 16° NW 20:28:46 16° NW 20:30:17 10° NW visible
21 Jan 4.1 18:11:10 23° NE 18:11:10 23° NE 18:14:34 10° NNE visible
21 Jan 4.5 19:51:21 31° NW 19:51:21 31° NW 19:54:15 10° NNW visible
22 Jan 4.7 17:33:45 12° ENE 17:34:21 12° NE 17:36:16 10° NE visible
22 Jan 3.5 19:13:56 49° N 19:13:56 49° N 19:17:38 10° N visible
22 Jan 6.0 20:54:07 11° WNW 20:54:07 11° WNW 20:54:38 10° WNW visible
23 Jan 3.5 18:36:31 37° NE 18:36:31 37° NE 18:40:39 10° N visible
23 Jan 5.0 20:16:43 24° WNW 20:16:43 24° WNW 20:19:27 10° NW visible
24 Jan 6.4 06:40:54 10° ENE 06:41:55 11° E 06:42:54 10° E visible
24 Jan 4.2 17:59:05 19° ENE 17:59:36 20° ENE 18:03:09 10° NNE visible
24 Jan 3.7 19:39:16 48° NW 19:39:16 48° NW 19:43:12 10° NNW visible
25 Jan 3.0 19:01:50 61° NE 19:01:50 61° NE 19:06:28 10° N visible
25 Jan 5.6 20:42:01 16° WNW 20:42:01 16° WNW 20:44:10 10° NW visible
26 Jan 3.7 18:24:23 30° ENE 18:24:56 31° ENE 18:29:21 10° N visible
26 Jan 4.5 20:04:35 34° WNW 20:04:35 34° WNW 20:08:31 10° NNW visible
27 Jan 4.5 17:46:56 14° E 17:48:36 16° ENE 17:51:37 10° NNE visible
27 Jan 3.0 19:27:07 76° W 19:27:07 76° W 19:32:06 10° NNW visible
28 Jan 3.1 18:49:39 47° E 18:50:20 51° ENE 18:55:16 10° N visible
28 Jan 5.2 20:29:51 21° W 20:29:51 21° W 20:33:29 10° NW visible
29 Jan 3.9 18:12:11 21° E 18:13:53 26° ENE 18:18:01 10° N visible
29 Jan 3.9 19:52:23 44° WSW 19:52:40 44° W 19:57:32 10° NNW visible
